DO3HUM-5 Weather Reports


time (UTC)temp
C
wind
direction
speed
KPH
gust
KPH
rain 1hr
cm
rain 24hr
cm
rain mn
cm
humidity
%
barometer
mb
20260506160524 16 218 1.6 3.2 0.00 0.00 0.00 78 1012.1
20260506155520 16 309 1.6 6.4 0.00 0.00 0.00 76 1012.2
20260506154611 16 19 1.6 3.2 0.00 0.00 0.00 76 1012.1
20260506153610 17 106 1.6 9.7 0.00 0.00 0.00 75 1012.0
20260506152600 17 303 1.6 6.4 0.00 0.00 0.00 74 1012.1
20260506151557 17 344 3.2 6.4 0.00 0.00 0.00 74 1012.1
20260506150554 17 13 1.6 6.4 0.00 0.00 0.00 73 1012.0
20260506145546 17 310 1.6 6.4 0.00 0.00 0.00 74 1012.1
20260506144543 17 19 1.6 6.4 0.00 0.00 0.00 74 1012.2
20260506143056 18 209 1.6 6.4 0.00 0.00 0.00 73 1012.3
20260506142046 17 331 3.2 6.4 0.00 0.00 0.00 74 1012.3
20260506141043 17 0 1.6 3.2 0.00 0.00 0.00 71 1012.5
20260505184613 16 0.0 0.0 0.00 0.15 0.13 79 1013.3
20260505183610 16 0 0.0 6.4 0.00 0.15 0.13 78 1013.4
20260505182606 16 0 0.0 3.2 0.00 0.15 0.13 77 1013.5
20260505181605 17 326 0.0 3.2 0.00 0.15 0.13 76 1013.6
20260505180600 17 338 1.6 6.4 0.00 0.15 0.13 75 1013.7
20260505175557 17 354 1.6 3.2 0.00 0.15 0.13 74 1013.6
20260505174554 17 0 1.6 3.2 0.00 0.15 0.13 74 1013.5
20260505173551 17 343 0.0 3.2 0.00 0.15 0.13 72 1013.6
20260505172548 18 335 0.0 3.2 0.00 0.15 0.13 69 1013.5
20260505171545 18 0.0 3.2 0.00 0.15 0.13 68 1013.5
20260505170544 18 91 1.6 3.2 0.00 0.15 0.13 67 1013.6
20260505165541 18 82 1.6 3.2 0.00 0.15 0.13 67 1013.7
20260505164537 19 83 0.0 6.4 0.00 0.15 0.13 65 1013.8
20260505163534 19 107 1.6 6.4 0.00 0.15 0.13 65 1013.6
20260505162533 19 81 1.6 3.2 0.00 0.15 0.13 67 1013.8
20260505161530 19 75 3.2 6.4 0.00 0.15 0.13 65 1013.8